RADUGA 28 (21821 NORAD) Tracking and Keplerian Element Data

This shows tracking and keplerian element data for the satellite.

Feedback or suggestion? Click here.




ElementValue
Catalog21821
NameRADUGA 28
Epoch Orbit12452
Epoch Day354.10253131
Epoch Year2025
RAAN342.3534
Inclination13.4963
Eccentricity0.0005137
Argument of Perigee206.7214
Mean Anonmoly327.2249
Mean Motion1.0026284
Decay Rate1.41E-06
L11 21821U 91087A 25354.10253131 .00000141 00000+0 00000+0 0 9998
L22 21821 13.4963 342.3534 0005137 206.7214 327.2249 1.00262840124520



Live tracking and technical data element details for RADUGA 28 (NORAD 21821). RADUGA 28 can be tracked NOW for your location showing map with azimuth and elevation plus other details from your city location.







IsCatalogInMostPopularTable: catalog: 21821, numindb: 365
Update: records affected: 1



GetName: 21821 RADUGA 28

Hit Count: updated at: Thu, 16 Apr 2026 04:55:13 GMT